Vorticity
4 -2 -1 -1 5 12 12 4 7 9 0 7 2 7 4 1 2 -0 -1 2 10 11 10 6 3 3 5 6 6 5 10 9 10 9 6 6 8 12 11 8 6 6 8 10
4 5 9 13 6 7 6 10 10 10 12 6 7 1 4 15 19 15 18 10 10 7 5 4 6 7 7 6 9 12 5 4 7 6 7 13 8 9 11 10 9 10 8 8
2 -9 -14 -6 -3 -7 12 1 9 6 21 10 6 14 31 17 32 19 8 3 4 7 7 7 8 8 10 9 9 6 1 4 0 2 9 4 6 12 10 7 6 8 8 8
39 51 32 30 22 26 14 13 16 15 10 11 5 -11 -1 14 3 13 21 10 6 14 14 15 11 8 10 10 7 1 4 2 -1 4 10 5 12 9 5 4 6 7 6 6
-6 -3 3 -2 7 18 15 21 14 7 7 8 11 29 12 23 4 -11 13 15 31 26 18 11 8 12 10 7 -1 2 -3 -4 6 14 9 17 9 5 3 6 8 7 6 6
9 18 13 19 6 5 -1 2 5 4 14 26 15 5 30 22 19 -6 -5 17 2 8 17 23 22 17 12 9 6 10 6 13 11 12 19 6 7 4 9 3 9 9 8 9
-0 11 6 5 26 24 -4 5 14 17 12 -1 29 28 -26 -17 6 21 21 7 2 9 18 24 26 21 12 4 15 8 6 8 12 15 5 7 6 8 4 8 13 9 9 10
17 16 6 12 19 7 6 25 -33 8 7 2 -22 12 -14 -19 -9 10 16 15 15 11 13 5 -3 -5 9 3 16 -3 12 15 14 9 7 6 9 8 5 15 9 9 11 10
3 15 12 7 -1 5 13 20 28 3 -6 22 9 -1 8 11 17 14 13 9 5 7 -4 5 15 9 15 12 2 9 5 13 14 10 7 7 8 6 14 9 10 9 8 9
1 14 33 13 -4 -8 10 1 2 6 8 10 15 6 -24 -10 6 12 5 5 7 -10 18 15 5 10 6 -2 3 3 5 6 6 6 10 9 11 11 11 14 10 11 10 10
11 -1 -2 1 10 11 6 -10 8 12 -6 -0 19 -2 8 15 16 32 -3 9 -2 10 6 5 4 2 4 3 10 3 3 6 8 6 9 10 11 18 11 7 9 10 10 10
10 -13 -2 6 21 15 8 6 -0 -6 22 22 15 10 0 8 -3 -6 27 -5 8 5 3 5 4 -1 0 4 4 12 4 10 10 6 9 15 16 10 7 11 7 10 10 10
10 9 16 24 23 12 3 5 16 19 17 10 -14 -12 -7 -1 7 10 5 14 -0 13 0 -0 5 0 6 5 6 10 6 10 9 3 18 13 10 8 11 8 10 9 10 10
11 6 -11 -21 -30 -7 -8 -8 -1 17 17 1 -19 -19 -15 -30 -9 -6 -10 -4 -2 -3 2 7 2 1 2 5 8 10 8 7 11 9 15 11 10 11 8 9 10 11 11 11
-16 -5 10 12 12 11 14 16 9 -8 -6 -7 -1 -9 8 14 21 18 15 12 18 15 12 24 38 2 2 8 12 10 13 11 11 12 13 9 11 8 8 11 9 7 9 10
11 11 7 9 13 11 6 10 6 3 10 5 7 3 18 33 27 19 26 27 22 17 22 15 23 20 13 17 12 9 10 11 11 14 11 11 8 8 11 8 7 13 10 10
11 5 5 16 30 18 40 25 40 33 27 27 19 20 33 10 17 10 14 20 3 6 16 10 5 9 16 11 9 8 9 12 14 13 10 8 8 10 7 7 11 9 10 9
8 12 11 -3 18 25 21 16 12 -0 -4 7 11 -0 7 21 17 4 14 19 25 11 9 9 12 15 15 14 9 12 18 16 14 12 8 8 9 7 7 9 9 9 8 8
14 12 6 -1 -2 -30 6 74 60 28 -3 21 15 5 31 -3 13 34 20 11 10 10 11 14 15 16 18 16 15 17 14 14 13 8 8 8 7 10 8 9 10 9 9 8
15 13 32 -2 -4 -2 3 -6 7 -13 18 25 13 27 36 21 6 14 12 9 10 12 13 8 11 13 16 16 16 14 14 12 9 8 8 8 8 7 8 10 7 8 7 7
11 18 19 25 -4 22 7 17 21 35 -13 1 8 18 1 7 14 8 5 5 11 8 10 11 14 16 15 14 13 13 11 9 8 8 8 8 8 9 10 6 7 7 6 7
12 5 6 35 12 20 23 9 25 13 9 0 -4 3 16 10 3 6 15 14 8 9 8 13 17 14 12 14 13 11 10 9 8 8 9 9 9 9 9 6 7 6 7 7
28 20 -4 -9 12 -21 6 19 -12 20 10 12 9 3 10 7 3 6 10 7 9 8 7 15 15 13 12 12 11 10 9 9 9 9 8 9 9 8 8 7 7 6 7 6
1 9 16 7 9 -9 17 -14 33 54 16 3 5 -4 -3 17 9 9 13 11 7 8 9 16 14 13 13 12 10 9 9 9 9 9 9 10 9 9 9 9 7 6 6 5
1 -0 1 -2 12 8 7 -6 19 2 58 -2 2 2 19 10 9 4 10 9 10 7 12 17 13 12 10 10 9 8 8 9 10 11 10 11 11 10 9 9 7 7 5 5
6 -1 -2 -1 -4 13 12 1 13 3 0 72 10 13 13 11 10 10 13 11 10 13 16 15 14 13 12 10 8 9 9 10 11 12 12 11 11 10 9 8 7 6 6 6
Height
3094 3094 3095 3097 3097 3096 3094 3094 3093 3094 3096 3091 3090 3089 3093 3093 3092 3090 3090 3091 3092 3093 3094 3096 3097 3097 3097 3099 3100 3100 3100 3099 3097 3096 3095 3093 3090 3089 3087 3084 3083 3079 3077 3074
3091 3087 3090 3091 3091 3091 3091 3090 3089 3089 3091 3090 3086 3083 3086 3087 3084 3082 3083 3084 3084 3086 3087 3088 3089 3090 3091 3094 3095 3095 3094 3094 3093 3091 3089 3087 3086 3084 3082 3079 3078 3074 3071 3069
3084 3087 3088 3086 3085 3086 3087 3087 3087 3087 3086 3086 3083 3079 3081 3080 3079 3078 3078 3078 3077 3078 3081 3082 3084 3086 3088 3090 3092 3091 3089 3089 3087 3086 3083 3082 3080 3078 3078 3075 3072 3069 3067 3064
3080 3079 3081 3081 3080 3082 3079 3082 3083 3084 3083 3082 3083 3075 3076 3077 3077 3077 3074 3073 3072 3072 3073 3075 3077 3079 3082 3086 3086 3085 3084 3084 3083 3081 3079 3078 3075 3075 3072 3070 3068 3065 3062 3059
3079 3077 3079 3079 3078 3078 3079 3080 3078 3080 3081 3079 3079 3079 3069 3071 3072 3072 3071 3069 3067 3066 3067 3069 3072 3074 3077 3080 3080 3079 3079 3079 3079 3077 3075 3073 3072 3071 3068 3066 3064 3061 3058 3055
3075 3074 3075 3074 3076 3077 3076 3079 3078 3076 3077 3074 3072 3074 3066 3067 3068 3068 3068 3067 3065 3064 3063 3064 3067 3071 3075 3076 3075 3075 3076 3075 3073 3071 3070 3070 3068 3067 3064 3062 3059 3056 3054 3051
3073 3070 3071 3072 3069 3071 3074 3077 3076 3076 3075 3071 3067 3069 3063 3064 3064 3065 3064 3063 3063 3062 3060 3062 3065 3069 3072 3072 3072 3073 3072 3070 3069 3068 3066 3065 3063 3062 3060 3057 3055 3052 3050 3047
3070 3070 3068 3068 3067 3069 3070 3072 3073 3072 3072 3068 3067 3062 3058 3059 3060 3061 3062 3062 3062 3061 3060 3062 3064 3066 3067 3067 3067 3067 3066 3066 3065 3064 3063 3061 3060 3058 3055 3052 3050 3049 3047 3043
3069 3067 3065 3066 3066 3068 3067 3067 3067 3067 3068 3066 3060 3057 3056 3055 3057 3056 3058 3059 3060 3059 3060 3061 3062 3064 3065 3064 3064 3063 3063 3061 3060 3059 3058 3057 3055 3052 3050 3048 3046 3044 3041 3038
3064 3064 3063 3065 3065 3065 3065 3066 3066 3066 3071 3066 3057 3052 3050 3052 3054 3054 3055 3056 3055 3056 3058 3059 3059 3060 3061 3061 3059 3057 3056 3055 3055 3055 3054 3053 3050 3047 3045 3043 3041 3039 3036 3034
3060 3061 3061 3061 3062 3062 3063 3062 3062 3063 3063 3063 3061 3045 3046 3048 3049 3050 3051 3052 3052 3052 3054 3055 3055 3056 3056 3056 3055 3053 3052 3052 3052 3050 3049 3047 3045 3042 3040 3038 3037 3035 3034 3032
3057 3054 3054 3057 3058 3058 3059 3057 3057 3058 3057 3055 3054 3033 3041 3045 3045 3047 3048 3047 3048 3048 3050 3051 3051 3051 3050 3050 3049 3048 3048 3047 3046 3045 3044 3042 3039 3037 3036 3035 3034 3033 3031 3029
3052 3051 3050 3051 3056 3056 3054 3053 3052 3052 3050 3048 3051 3034 3039 3040 3041 3042 3042 3043 3044 3044 3044 3045 3044 3043 3043 3043 3043 3042 3041 3041 3041 3040 3038 3037 3035 3033 3032 3032 3031 3030 3029 3027
3048 3047 3048 3048 3050 3052 3051 3050 3049 3046 3045 3044 3031 3032 3030 3035 3038 3037 3037 3038 3038 3036 3036 3035 3034 3035 3036 3036 3036 3036 3036 3035 3035 3034 3033 3032 3031 3030 3030 3029 3029 3028 3026 3024
3045 3042 3044 3042 3044 3044 3042 3042 3042 3039 3038 3038 3017 3025 3021 3024 3027 3028 3029 3028 3027 3026 3026 3026 3025 3028 3029 3029 3029 3030 3030 3030 3029 3029 3029 3028 3028 3028 3027 3027 3026 3025 3024 3023
3039 3038 3036 3034 3037 3036 3033 3032 3032 3030 3026 3024 3019 3009 3018 3017 3016 3015 3016 3017 3018 3018 3018 3018 3018 3019 3020 3022 3023 3023 3024 3024 3024 3024 3025 3024 3025 3025 3025 3025 3024 3023 3022 3021
3035 3034 3034 3030 3031 3031 3024 3022 3020 3018 3016 3016 3012 3008 3010 3009 3010 3010 3010 3010 3011 3011 3012 3012 3012 3013 3014 3015 3016 3017 3018 3018 3019 3020 3020 3021 3022 3022 3022 3022 3021 3021 3020 3019
3029 3029 3030 3028 3029 3026 3016 3015 3014 3013 3011 3009 3006 3005 3006 3005 3005 3005 3005 3005 3004 3005 3006 3006 3006 3006 3007 3008 3010 3011 3012 3013 3014 3015 3016 3018 3019 3020 3019 3019 3019 3018 3018 3017
3023 3023 3024 3024 3024 3016 3012 3010 3009 3007 3004 3003 3002 3002 3000 3000 3000 3000 3000 3000 3000 3000 3001 3001 3001 3001 3002 3003 3004 3005 3006 3008 3010 3011 3013 3014 3016 3016 3016 3017 3017 3016 3015 3015
3018 3017 3019 3020 3019 3013 3009 3008 3006 3004 2999 2999 2999 2996 2994 2996 2997 2997 2996 2997 2997 2997 2997 2998 2998 2997 2998 2999 3000 3001 3002 3004 3006 3008 3010 3011 3012 3013 3013 3014 3014 3013 3013 3012
3012 3012 3011 3011 3011 3004 3002 3003 3002 3003 3002 2997 2996 2995 2994 2995 2996 2995 2995 2994 2994 2994 2994 2994 2993 2993 2994 2994 2996 2997 2999 3001 3003 3005 3006 3008 3008 3009 3010 3011 3010 3010 3010 3010
3007 3008 3006 3006 3006 3002 2998 2998 2998 2996 2994 2993 2993 2994 2993 2993 2993 2992 2992 2991 2991 2991 2990 2990 2990 2990 2990 2991 2992 2994 2996 2998 3000 3002 3003 3004 3005 3006 3007 3007 3007 3007 3007 3007
3000 2999 3000 3001 2996 2995 2995 2992 2992 2990 2988 2989 2989 2989 2990 2990 2990 2989 2989 2988 2988 2988 2987 2987 2986 2986 2987 2988 2990 2992 2993 2995 2997 2999 3000 3001 3002 3003 3003 3004 3004 3004 3004 3003
2992 2993 2992 2993 2992 2991 2989 2987 2984 2980 2980 2983 2984 2985 2985 2986 2986 2986 2985 2985 2985 2984 2983 2983 2983 2984 2985 2986 2987 2989 2990 2992 2994 2995 2996 2997 2999 2999 3000 3001 3001 3001 3000 3000
2988 2987 2987 2985 2985 2986 2984 2982 2979 2976 2975 2976 2979 2980 2981 2981 2981 2981 2981 2980 2980 2980 2980 2979 2980 2981 2982 2983 2985 2986 2987 2988 2989 2991 2992 2994 2995 2995 2996 2997 2997 2997 2996 2995
2981 2981 2982 2978 2981 2979 2978 2979 2975 2974 2969 2966 2974 2976 2976 2977 2977 2976 2976 2976 2976 2975 2975 2975 2976 2977 2979 2980 2982 2983 2983 2984 2985 2987 2988 2990 2990 2991 2992 2992 2993 2992 2991 2990